IRIDIUM 54 [+] (25171 NORAD) Tracking and Keplerian Element Data

This shows tracking and keplerian element data for the satellite.

Feedback or suggestion? Click here.




ElementValue
Catalog25171
NameIRIDIUM 54 [+]
Epoch Orbit6824
Epoch Day195.95424338
Epoch Year2018
RAAN186.2442
Inclination86.3975
Eccentricity0.0002319
Argument of Perigee86.7383
Mean Anonmoly273.4078
Mean Motion14.34218482
Decay Rate2.5E-07
L11 25171U 98010C 18195.95424338 .00000025 00000-0 19157-5 0 9991
L22 25171 86.3975 186.2442 0002319 86.7383 273.4078 14.34218482 68241

Live tracking and technical data element details for IRIDIUM 54 [+] (NORAD 25171). IRIDIUM 54 [+] can be tracked NOW for your location showing map with azimuth and elevation plus other details from your city location.

Track the satellite on the map from your city or location and see movement details for azimuth, elevation, latitude, longitude, range, height, and movement on the map or in text.







IsCatalogInMostPopularTable: catalog: 25171, numindb: 35
Update: records affected: 1



GetName: 25171 IRIDIUM 54 [+]

Hit Count: updated at: Mon, 16 Jul 2018 14:44:57 GMT